Weather History for Franklin, VA

Change the Weather History Date:

Wednesday, February 13, 2013

  Actual Average (KSFQ) Record (KSFQ)
Temperature  
Mean Temperature 48 °F -  
Max Temperature 51 °F 49 °F 74 °F (1984)
Min Temperature 44 °F 29 °F 12 °F (1980)
Degree Days  
Heating Degree Days 18    
Moisture  
Dew Point 46 °F    
Average Humidity 95    
Maximum Humidity 100    
Minimum Humidity 54    
Precipitation  
Precipitation 0.00 in - - ()
Sea Level Pressure  
Sea Level Pressure 29.76 in    
Wind  
Wind Speed 3 mph (West)    
Max Wind Speed 10 mph    
Max Gust Speed 20 mph    
Visibility 7 miles    
Events      
Averages and records for this station are not official NWS values.
T = Trace of Precipitation, MM = Missing Value Source: NWS Daily Summary

Daily Weather History Graph

Daily Weather History Graph

Search for Another Location

Airport:

Trip Planner

Search our weather history database for the weather conditions in past years. The results will help you decide how hot, cold, wet, or windy it might be!

Date:

Astronomy

Feb. 13, 2013 Rise Set
Actual Time 6:57 AM EST 5:46 PM EST
Civil Twilight 6:31 AM EST 6:12 PM EST
Nautical Twilight 6:00 AM EST 6:43 PM EST
Astronomical Twilight 5:30 AM EST 7:13 PM EST
Moon 8:33 AM EST (2/13) 9:38 PM EST (2/13)
Length of Visible Light 11h 41m
Length of Day
10h 48m
Waxing Crescent, 13% of the Moon is Illuminated
Feb 13
Waxing Crescent
Feb 17
First Quarter
Feb 25
Full
Mar 4
Last Quarter
Mar 11
New

Hourly Weather History & Observations

Time (EST) Temp. Windchill Dew Point Humidity Pressure Visibility Wind Dir Wind Speed Gust Speed Precip Events Conditions
12:15 AM 50.0 °F - 37.4 °F 62% 29.94 in 10.0 mi South 5.8 mph - N/A   Mostly Cloudy
12:35 AM 51.8 °F - 37.4 °F 58% 29.94 in 10.0 mi South 3.5 mph - N/A   Mostly Cloudy
12:55 AM 51.8 °F - 35.6 °F 54% 29.94 in 10.0 mi South 4.6 mph - N/A   Overcast
1:15 AM 51.8 °F - 37.4 °F 58% 29.93 in 10.0 mi South 9.2 mph - N/A   Overcast
1:35 AM 50.0 °F - 39.2 °F 66% 29.95 in 10.0 mi South 6.9 mph - N/A   Overcast
1:55 AM 48.2 °F - 41.0 °F 76% 29.93 in 10.0 mi SSW 5.8 mph - N/A   Overcast
2:15 AM 48.2 °F - 42.8 °F 82% 29.90 in 10.0 mi SSE 3.5 mph - N/A   Mostly Cloudy
2:35 AM 48.2 °F - 42.8 °F 82% 29.91 in 10.0 mi Calm Calm - N/A   Mostly Cloudy
2:55 AM 48.2 °F - 44.6 °F 87% 29.88 in 10.0 mi SSE 3.5 mph - N/A   Overcast
3:15 AM 46.4 °F - 44.6 °F 93% 29.87 in 10.0 mi Calm Calm - N/A   Overcast
3:35 AM 48.2 °F - 44.6 °F 87% 29.86 in 10.0 mi Calm Calm - N/A   Overcast
3:55 AM 48.2 °F - 44.6 °F 87% 29.87 in 10.0 mi South 4.6 mph - N/A   Overcast
4:15 AM 48.2 °F - 44.6 °F 87% 29.88 in 10.0 mi Calm Calm - N/A   Overcast
4:35 AM 48.2 °F - 44.6 °F 87% 29.86 in 10.0 mi NNW 4.6 mph - N/A   Mostly Cloudy
4:55 AM 46.4 °F - 44.6 °F 93% 29.84 in 10.0 mi Calm Calm - N/A   Mostly Cloudy
5:15 AM 46.4 °F - 44.6 °F 93% 29.84 in 10.0 mi Calm Calm - N/A   Overcast
5:35 AM 46.4 °F - 44.6 °F 93% 29.83 in 10.0 mi Calm Calm - N/A   Overcast
5:55 AM 46.4 °F - 46.4 °F 100% 29.83 in 10.0 mi Calm Calm - N/A   Overcast
6:15 AM 46.4 °F - 46.4 °F 100% 29.83 in 10.0 mi Calm Calm - N/A   Overcast
6:35 AM 46.4 °F - 46.4 °F 100% 29.83 in 5.0 mi Calm Calm - N/A   Overcast
6:55 AM 46.4 °F - 46.4 °F 100% 29.82 in 10.0 mi Calm Calm - N/A   Overcast
7:15 AM 46.4 °F - 46.4 °F 100% 29.83 in 10.0 mi Calm Calm - N/A   Mostly Cloudy
7:35 AM 46.4 °F - 46.4 °F 100% 29.83 in 10.0 mi Calm Calm - N/A   Mostly Cloudy
7:55 AM 46.4 °F 45.2 °F 46.4 °F 100% 29.86 in 10.0 mi WNW 3.5 mph - N/A   Overcast
8:15 AM 46.4 °F - 46.4 °F 100% 29.86 in 10.0 mi Calm Calm - N/A   Overcast
8:35 AM 48.2 °F - 46.4 °F 93% 29.86 in 10.0 mi Calm Calm - N/A   Overcast
8:55 AM 48.2 °F - 46.4 °F 93% 29.85 in 10.0 mi Calm Calm - N/A   Mostly Cloudy
9:15 AM 48.2 °F - 46.4 °F 93% 29.86 in 10.0 mi South 5.8 mph - N/A   Mostly Cloudy
9:35 AM 48.2 °F - 46.4 °F 93% 29.84 in 10.0 mi South 3.5 mph - N/A   Mostly Cloudy
9:55 AM 48.2 °F - 48.2 °F 100% 29.83 in 10.0 mi Calm Calm - N/A   Overcast
10:15 AM 50.0 °F - 48.2 °F 94% 29.83 in 10.0 mi SW 3.5 mph - N/A   Overcast
10:35 AM 48.2 °F - 48.2 °F 100% 29.82 in 4.0 mi Calm Calm - N/A   Overcast
10:55 AM 48.2 °F - 48.2 °F 100% 29.80 in 3.0 mi Calm Calm - N/A   Overcast
11:15 AM 48.2 °F - 48.2 °F 100% 29.79 in 10.0 mi Calm Calm - N/A   Overcast
11:35 AM 48.2 °F - 48.2 °F 100% 29.79 in 10.0 mi Calm Calm - N/A   Overcast
11:55 AM 48.2 °F - 48.2 °F 100% 29.77 in 1.5 mi NNW 3.5 mph - N/A   Overcast
12:15 PM 48.2 °F - 48.2 °F 100% 29.74 in 1.8 mi Calm Calm - N/A   Overcast
12:35 PM 48.2 °F - 48.2 °F 100% 29.72 in 5.0 mi Calm Calm - N/A   Overcast
12:55 PM 48.2 °F - 48.2 °F 100% 29.71 in 10.0 mi Calm Calm - N/A   Overcast
1:15 PM 48.2 °F - 48.2 °F 100% 29.70 in 10.0 mi ENE 5.8 mph - N/A   Overcast
1:35 PM 50.0 °F - 50.0 °F 100% 29.66 in 7.0 mi East 3.5 mph - N/A   Overcast
1:55 PM 48.2 °F - 48.2 °F 100% 29.66 in 3.0 mi NE 5.8 mph - N/A   Overcast
2:15 PM 48.2 °F - 48.2 °F 100% 29.65 in 10.0 mi East 4.6 mph - N/A   Overcast
2:35 PM 48.2 °F - 48.2 °F 100% 29.64 in 1.5 mi Calm Calm - N/A   Overcast
2:55 PM 48.2 °F - 48.2 °F 100% 29.62 in 1.0 mi ENE 4.6 mph - N/A   Overcast
3:15 PM 48.2 °F - 48.2 °F 100% 29.63 in 1.0 mi East 3.5 mph - N/A   Overcast
3:35 PM 48.2 °F - 48.2 °F 100% 29.63 in 0.8 mi Calm Calm - N/A   Overcast
3:55 PM 48.2 °F - 48.2 °F 100% 29.63 in 0.8 mi Calm Calm - N/A   Overcast
4:15 PM 48.2 °F - 48.2 °F 100% 29.63 in 1.2 mi Calm Calm - N/A   Overcast
4:35 PM 48.2 °F - 48.2 °F 100% 29.62 in 1.5 mi East 3.5 mph - N/A   Overcast
4:55 PM 48.2 °F - 48.2 °F 100% 29.62 in 2.0 mi Calm Calm - N/A   Overcast
5:15 PM 48.2 °F - 48.2 °F 100% 29.61 in 1.8 mi Calm Calm - N/A   Overcast
5:35 PM 48.2 °F - 48.2 °F 100% 29.63 in 1.8 mi WNW 3.5 mph - N/A   Overcast
5:55 PM 48.2 °F - 48.2 °F 100% 29.62 in 1.8 mi Calm Calm - N/A   Overcast
6:15 PM 48.2 °F - 48.2 °F 100% 29.61 in 2.0 mi Calm Calm - N/A   Overcast
6:35 PM 48.2 °F - 48.2 °F 100% 29.63 in 1.5 mi Calm Calm - N/A   Overcast
6:55 PM 48.2 °F - 48.2 °F 100% 29.63 in 2.0 mi Calm Calm - N/A   Overcast
7:15 PM 48.2 °F - 48.2 °F 100% 29.64 in 2.5 mi West 3.5 mph - N/A   Overcast
7:35 PM 48.2 °F - 48.2 °F 100% 29.64 in 3.0 mi WNW 6.9 mph - N/A   Overcast
7:55 PM 48.2 °F - 48.2 °F 100% 29.65 in 4.0 mi WNW 5.8 mph - N/A   Overcast
8:15 PM 48.2 °F - 48.2 °F 100% 29.65 in 5.0 mi West 6.9 mph - N/A   Overcast
8:35 PM 48.2 °F - 48.2 °F 100% 29.66 in 7.0 mi West 8.1 mph - N/A   Overcast
8:55 PM 48.2 °F - 48.2 °F 100% 29.68 in 10.0 mi WNW 10.4 mph - N/A   Overcast
9:15 PM 48.2 °F - 48.2 °F 100% 29.68 in 10.0 mi WNW 5.8 mph - N/A   Overcast
9:35 PM 48.2 °F - 48.2 °F 100% 29.69 in 10.0 mi WNW 8.1 mph - N/A   Overcast
9:55 PM 48.2 °F - 48.2 °F 100% 29.70 in 10.0 mi WNW 5.8 mph - N/A   Overcast
10:15 PM 46.4 °F 43.5 °F 46.4 °F 100% 29.71 in 10.0 mi NW 5.8 mph - N/A   Overcast
10:35 PM 46.4 °F 43.5 °F 46.4 °F 100% 29.71 in 10.0 mi WNW 5.8 mph - N/A   Overcast
10:55 PM 46.4 °F 42.9 °F 46.4 °F 100% 29.72 in 10.0 mi WNW 6.9 mph - N/A   Overcast
11:15 PM 46.4 °F 41.5 °F 46.4 °F 100% 29.74 in 7.0 mi NW 10.4 mph 19.6 mph N/A   Overcast
11:35 PM 44.6 °F 39.2 °F 44.6 °F 100% 29.75 in 10.0 mi WNW 10.4 mph 17.3 mph N/A   Overcast
11:55 PM 44.6 °F 40.2 °F 44.6 °F 100% 29.76 in 10.0 mi NW 8.1 mph - N/A   Overcast